Check out our new BloomSky Weather System.

Active alerts


No alerts


Thunder radar  blitzortung!


Rain radar more information rain snow radar


Visit our other weather sites:

Template documentation
and downloads

And another site



Weather Underground History page Text

Daily Summary for January 7, 2017 Units:  Metric    English   Both
« Previous Day
Next Day »
Daily Weekly Monthly Yearly Custom
  High: Low: Average:
Temperature: 5.3 °C -6.6 °C -1.3 °C
Dew Point: -6 °C -10 °C -8.1 °C
Humidity: 80 % 36 % 62 %
Wind Speed: 24.1 km/h 0 km/h 4.7 km/h
Wind Gust: 27.4 km/h - -
Wind:- - WNW
Pressure: 1041.5 hPa 1031.7 hPa -
Precipitation: 0 mm    
Historical Graphs
 
 
Tabular Data for January 7, 2017
Time Temperature Dew Point Pressure Wind Wind Speed Wind Gust Humidity Rainfall Rate (Hourly)
00:01 -3.3 °C -6.3 °C 1031.7 hPa WNW 8 km/h 20.9 km/h 80 % 0 mm
00:06 -3.3 °C -6.4 °C 1032.1 hPa NW 9.7 km/h 20.9 km/h 79 % 0 mm
00:07 -3.3 °C -6.4 °C 1032.1 hPa NW 9.7 km/h 20.9 km/h 79 % 0 mm
00:12 -3.4 °C -6.7 °C 1032.1 hPa North 6.4 km/h 22.5 km/h 78 % 0 mm
00:17 -3.4 °C -6.7 °C 1032.1 hPa NNW 24.1 km/h 24.1 km/h 78 % 0 mm
00:22 -3.5 °C -6.9 °C 1032.1 hPa NW 11.3 km/h 24.1 km/h 77 % 0 mm
00:27 -3.5 °C -6.9 °C 1032.1 hPa NNW 11.3 km/h 24.1 km/h 77 % 0 mm
00:32 -3.6 °C -7 °C 1032.1 hPa NW 6.4 km/h 24.1 km/h 77 % 0 mm
00:37 -3.6 °C -7 °C 1032.4 hPa NW 12.9 km/h 25.7 km/h 77 % 0 mm
00:42 -3.7 °C -7.1 °C 1032.4 hPa NE 14.5 km/h 25.7 km/h 77 % 0 mm
00:47 -3.7 °C -7.1 °C 1032.4 hPa WNW 8 km/h 25.7 km/h 77 % 0 mm
00:52 -3.8 °C -7.4 °C 1032.4 hPa West 16.1 km/h 27.4 km/h 76 % 0 mm
00:57 -3.9 °C -7.5 °C 1032.4 hPa NW 1.6 km/h 27.4 km/h 76 % 0 mm
01:02 -4 °C -7.6 °C 1032.7 hPa NNW 6.4 km/h 27.4 km/h 76 % 0 mm
01:07 -4 °C -7.6 °C 1032.7 hPa WNW 8 km/h 27.4 km/h 76 % 0 mm
01:12 -4.1 °C -7.7 °C 1032.7 hPa NW 8 km/h 20.9 km/h 76 % 0 mm
01:17 -4.1 °C -7.7 °C 1032.7 hPa NW 6.4 km/h 20.9 km/h 76 % 0 mm
01:22 -4.2 °C -7.8 °C 1033.1 hPa NNW 9.7 km/h 20.9 km/h 76 % 0 mm
01:27 -4.2 °C -7.8 °C 1033.1 hPa NNW 6.4 km/h 17.7 km/h 76 % 0 mm
01:32 -4.2 °C -7.8 °C 1033.1 hPa NNW 6.4 km/h 19.3 km/h 76 % 0 mm
01:37 -4.2 °C -7.6 °C 1033.1 hPa NNW 6.4 km/h 19.3 km/h 77 % 0 mm
01:42 -4.2 °C -7.6 °C 1033.1 hPa NW 6.4 km/h 20.9 km/h 77 % 0 mm
01:47 -4.3 °C -7.7 °C 1033.1 hPa WSW 4.8 km/h 20.9 km/h 77 % 0 mm
01:52 -4.3 °C -7.6 °C 1033.1 hPa NNW 6.4 km/h 20.9 km/h 78 % 0 mm
01:57 -4.3 °C -7.6 °C 1033.1 hPa NNW 4.8 km/h 19.3 km/h 78 % 0 mm
02:02 -4.3 °C -7.6 °C 1033.1 hPa NW 8 km/h 19.3 km/h 78 % 0 mm
02:07 -4.3 °C -7.4 °C 1033.1 hPa NW 1.6 km/h 19.3 km/h 79 % 0 mm
02:12 -4.4 °C -7.5 °C 1033.1 hPa West 4.8 km/h 16.1 km/h 79 % 0 mm
02:17 -4.4 °C -7.5 °C 1033.1 hPa SW 3.2 km/h 16.1 km/h 79 % 0 mm
02:22 -4.5 °C -7.6 °C 1033.1 hPa NW 9.7 km/h 16.1 km/h 79 % 0 mm
02:27 -4.6 °C -7.7 °C 1033.1 hPa NNW 4.8 km/h 17.7 km/h 79 % 0 mm
02:32 -4.7 °C -7.8 °C 1033.4 hPa NNW 4.8 km/h 17.7 km/h 79 % 0 mm
02:37 -4.7 °C -7.8 °C 1033.4 hPa WNW 14.5 km/h 17.7 km/h 79 % 0 mm
02:42 -4.7 °C -7.8 °C 1033.4 hPa NW 14.5 km/h 22.5 km/h 79 % 0 mm
02:47 -4.7 °C -7.8 °C 1033.7 hPa NNW 9.7 km/h 22.5 km/h 79 % 0 mm
02:52 -4.8 °C -8 °C 1033.7 hPa NW 8 km/h 22.5 km/h 78 % 0 mm
02:57 -4.9 °C -8.1 °C 1033.7 hPa NNW 11.3 km/h 17.7 km/h 78 % 0 mm
03:02 -5 °C -8.2 °C 1033.7 hPa NW 9.7 km/h 20.9 km/h 78 % 0 mm
03:07 -5.1 °C -8.3 °C 1033.7 hPa NW 12.9 km/h 20.9 km/h 78 % 0 mm
03:12 -5.1 °C -8.3 °C 1033.7 hPa NW 11.3 km/h 20.9 km/h 78 % 0 mm
03:17 -5.2 °C -8.4 °C 1033.7 hPa NNW 9.7 km/h 19.3 km/h 78 % 0 mm
03:23 -5.2 °C -8.4 °C 1034.1 hPa NNW 8 km/h 20.9 km/h 78 % 0 mm
03:28 -5.3 °C -8.5 °C 1034.1 hPa NW 3.2 km/h 20.9 km/h 78 % 0 mm
03:33 -5.3 °C -8.4 °C 1034.1 hPa NW 8 km/h 20.9 km/h 79 % 0 mm
03:38 -5.3 °C -8.4 °C 1034.1 hPa NW 8 km/h 19.3 km/h 79 % 0 mm
03:43 -5.4 °C -8.5 °C 1034.1 hPa West 11.3 km/h 25.7 km/h 79 % 0 mm
03:48 -5.4 °C -8.5 °C 1034.4 hPa NW 9.7 km/h 25.7 km/h 79 % 0 mm
03:53 -5.4 °C -8.5 °C 1034.4 hPa NW 16.1 km/h 25.7 km/h 79 % 0 mm
03:58 -5.4 °C -8.5 °C 1034.4 hPa NW 6.4 km/h 24.1 km/h 79 % 0 mm
04:03 -5.5 °C -8.6 °C 1034.4 hPa WNW 9.7 km/h 24.1 km/h 79 % 0 mm
04:08 -5.6 °C -8.5 °C 1034.4 hPa NW 6.4 km/h 17.7 km/h 80 % 0 mm
04:13 -5.6 °C -8.7 °C 1034.4 hPa NNW 1.6 km/h 17.7 km/h 79 % 0 mm
04:18 -5.7 °C -8.6 °C 1034.8 hPa NW 4.8 km/h 19.3 km/h 80 % 0 mm
04:23 -5.7 °C -8.6 °C 1034.8 hPa WNW 6.4 km/h 19.3 km/h 80 % 0 mm
04:28 -5.7 °C -8.6 °C 1034.8 hPa NNW 3.2 km/h 19.3 km/h 80 % 0 mm
04:33 -5.7 °C -8.6 °C 1034.8 hPa North 8 km/h 17.7 km/h 80 % 0 mm
04:38 -5.8 °C -8.7 °C 1034.8 hPa NNW 12.9 km/h 17.7 km/h 80 % 0 mm
04:43 -5.8 °C -8.7 °C 1035.1 hPa NW 9.7 km/h 17.7 km/h 80 % 0 mm
04:48 -5.8 °C -8.9 °C 1035.1 hPa NW 8 km/h 17.7 km/h 79 % 0 mm
04:53 -5.8 °C -8.7 °C 1035.4 hPa NNW 14.5 km/h 16.1 km/h 80 % 0 mm
04:58 -5.8 °C -8.7 °C 1035.4 hPa SW 8 km/h 16.1 km/h 80 % 0 mm
05:03 -5.8 °C -8.9 °C 1035.8 hPa NW 4.8 km/h 16.1 km/h 79 % 0 mm
05:08 -5.9 °C -9 °C 1036.1 hPa North 3.2 km/h 16.1 km/h 79 % 0 mm
05:13 -5.9 °C -9 °C 1036.1 hPa North 4.8 km/h 14.5 km/h 79 % 0 mm
05:18 -5.9 °C -9 °C 1036.5 hPa NNW 4.8 km/h 14.5 km/h 79 % 0 mm
05:23 -6 °C -8.9 °C 1036.5 hPa North 6.4 km/h 14.5 km/h 80 % 0 mm
05:28 -6 °C -8.9 °C 1036.5 hPa NNW 3.2 km/h 11.3 km/h 80 % 0 mm
05:33 -6.1 °C -9.1 °C 1036.5 hPa West 4.8 km/h 11.3 km/h 79 % 0 mm
05:38 -6.1 °C -9.1 °C 1036.5 hPa NW 6.4 km/h 12.9 km/h 79 % 0 mm
05:43 -6.1 °C -9.1 °C 1036.5 hPa NW 3.2 km/h 12.9 km/h 79 % 0 mm
05:48 -6.1 °C -9.1 °C 1036.5 hPa NW 6.4 km/h 19.3 km/h 79 % 0 mm
05:53 -6.1 °C -9.3 °C 1036.5 hPa NW 6.4 km/h 19.3 km/h 78 % 0 mm
05:58 -6.2 °C -9.4 °C 1036.8 hPa NW 8 km/h 19.3 km/h 78 % 0 mm
06:03 -6.2 °C -9.4 °C 1036.8 hPa NW 4.8 km/h 16.1 km/h 78 % 0 mm
06:08 -6.2 °C -9.6 °C 1036.8 hPa WNW 4.8 km/h 16.1 km/h 77 % 0 mm
06:13 -6.2 °C -9.4 °C 1036.8 hPa NW 1.6 km/h 16.1 km/h 78 % 0 mm
06:18 -6.3 °C -9.7 °C 1037.1 hPa West 6.4 km/h 16.1 km/h 77 % 0 mm
06:23 -6.3 °C -9.7 °C 1037.1 hPa NNE 4.8 km/h 14.5 km/h 77 % 0 mm
06:28 -6.3 °C -9.7 °C 1037.1 hPa WNW 9.7 km/h 12.9 km/h 77 % 0 mm
06:33 -6.3 °C -9.7 °C 1037.1 hPa NW 4.8 km/h 12.9 km/h 77 % 0 mm
06:38 -6.3 °C -9.7 °C 1037.5 hPa WNW 4.8 km/h 11.3 km/h 77 % 0 mm
06:43 -6.4 °C -9.8 °C 1037.1 hPa NNW 1.6 km/h 11.3 km/h 77 % 0 mm
06:48 -6.4 °C -9.8 °C 1037.5 hPa WNW 1.6 km/h 11.3 km/h 77 % 0 mm
06:53 -6.4 °C -9.8 °C 1037.8 hPa NW 3.2 km/h 9.7 km/h 77 % 0 mm
06:58 -6.4 °C -9.8 °C 1037.8 hPa NNW 1.6 km/h 9.7 km/h 77 % 0 mm
07:03 -6.4 °C -9.8 °C 1038.1 hPa NNW 3.2 km/h 9.7 km/h 77 % 0 mm
07:08 -6.5 °C -9.9 °C 1038.1 hPa NNW 3.2 km/h 9.7 km/h 77 % 0 mm
07:13 -6.5 °C -9.9 °C 1038.1 hPa WNW 1.6 km/h 9.7 km/h 77 % 0 mm
07:18 -6.6 °C -10 °C 1038.1 hPa NW 1.6 km/h 9.7 km/h 77 % 0 mm
07:23 -6.6 °C -9.8 °C 1038.5 hPa NW 1.6 km/h 9.7 km/h 78 % 0 mm
07:28 -6.6 °C -9.8 °C 1038.5 hPa North 1.6 km/h 8 km/h 78 % 0 mm
07:33 -6.6 °C -9.8 °C 1038.8 hPa NW 6.4 km/h 6.4 km/h 78 % 0 mm
07:39 -6.5 °C -9.9 °C 1038.8 hPa NW 3.2 km/h 9.7 km/h 77 % 0 mm
07:44 -6.4 °C -9.8 °C 1038.8 hPa NW 6.4 km/h 9.7 km/h 77 % 0 mm
07:49 -6.3 °C -9.8 °C 1038.8 hPa NNW 3.2 km/h 11.3 km/h 76 % 0 mm
07:53 -6.2 °C -9.7 °C 1039.2 hPa NW 4.8 km/h 11.3 km/h 76 % 0 mm
07:59 -6.1 °C -9.8 °C 1039.2 hPa NW 1.6 km/h 11.3 km/h 75 % 0 mm
08:04 -5.9 °C -9.6 °C 1039.2 hPa NNW 6.4 km/h 11.3 km/h 75 % 0 mm
08:09 -5.8 °C -9.5 °C 1039.2 hPa NNW 9.7 km/h 11.3 km/h 75 % 0 mm
08:14 -5.7 °C -9.6 °C 1039.5 hPa NNW 6.4 km/h 11.3 km/h 74 % 0 mm
08:19 -5.6 °C -9.5 °C 1039.5 hPa NNW 6.4 km/h 11.3 km/h 74 % 0 mm
08:24 -5.4 °C -9.3 °C 1039.8 hPa NW 6.4 km/h 11.3 km/h 74 % 0 mm
08:29 -5.3 °C -9.6 °C 1039.8 hPa NW 6.4 km/h 11.3 km/h 72 % 0 mm
08:34 -5.2 °C -9.5 °C 1039.8 hPa NW 8 km/h 12.9 km/h 72 % 0 mm
08:39 -5.1 °C -9.4 °C 1040.2 hPa NW 3.2 km/h 16.1 km/h 72 % 0 mm
08:44 -4.8 °C -9.2 °C 1040.2 hPa WNW 9.7 km/h 16.1 km/h 71 % 0 mm
08:49 -4.7 °C -9.3 °C 1040.5 hPa West 4.8 km/h 16.1 km/h 70 % 0 mm
08:54 -4.7 °C -9.5 °C 1040.5 hPa NNW 4.8 km/h 12.9 km/h 69 % 0 mm
08:59 -4.5 °C -9.1 °C 1040.5 hPa NNW 8 km/h 16.1 km/h 70 % 0 mm
09:04 -4.3 °C -9.1 °C 1040.5 hPa NW 6.4 km/h 16.1 km/h 69 % 0 mm
09:09 -4.2 °C -9.2 °C 1040.5 hPa NW 4.8 km/h 16.1 km/h 68 % 0 mm
09:14 -4.1 °C -9.3 °C 1040.5 hPa NW 3.2 km/h 12.9 km/h 67 % 0 mm
09:19 -3.8 °C -9 °C 1040.5 hPa NW 4.8 km/h 12.9 km/h 67 % 0 mm
09:24 -3.6 °C -9 °C 1040.5 hPa West 1.6 km/h 12.9 km/h 66 % 0 mm
09:29 -3.6 °C -9.2 °C 1040.9 hPa NNW 4.8 km/h 12.9 km/h 65 % 0 mm
09:34 -3.3 °C -8.7 °C 1041.2 hPa NNW 3.2 km/h 11.3 km/h 66 % 0 mm
09:39 -2.8 °C -8.5 °C 1040.9 hPa ENE 6.4 km/h 12.9 km/h 65 % 0 mm
09:44 -2.7 °C -9 °C 1041.2 hPa NW 6.4 km/h 12.9 km/h 62 % 0 mm
09:49 -2.8 °C -9.3 °C 1041.2 hPa NW 4.8 km/h 12.9 km/h 61 % 0 mm
09:54 -2.9 °C -9.2 °C 1041.2 hPa North 3.2 km/h 12.9 km/h 62 % 0 mm
09:59 -2.5 °C -8.4 °C 1041.2 hPa West 4.8 km/h 11.3 km/h 64 % 0 mm
10:04 -2.6 °C -9.1 °C 1041.2 hPa WNW 4.8 km/h 11.3 km/h 61 % 0 mm
10:09 -2.5 °C -8.8 °C 1041.5 hPa WNW 1.6 km/h 11.3 km/h 62 % 0 mm
10:14 -2.2 °C -8.5 °C 1041.5 hPa NNW 3.2 km/h 11.3 km/h 62 % 0 mm
10:19 -1.8 °C -8.5 °C 1041.5 hPa NW 4.8 km/h 14.5 km/h 60 % 0 mm
10:24 -1.6 °C -8.8 °C 1041.5 hPa NNW 3.2 km/h 14.5 km/h 58 % 0 mm
10:29 -1.7 °C -8.7 °C 1041.5 hPa WSW 1.6 km/h 14.5 km/h 59 % 0 mm
10:34 -1.3 °C -8.3 °C 1041.5 hPa Calm   12.9 km/h 59 % 0 mm
10:39 -1.2 °C -8.6 °C 1041.5 hPa WNW 1.6 km/h 12.9 km/h 57 % 0 mm
10:44 -1.1 °C -8.5 °C 1041.5 hPa NW 4.8 km/h 12.9 km/h 57 % 0 mm
10:49 -0.9 °C -8.3 °C 1041.2 hPa NW 4.8 km/h 11.3 km/h 57 % 0 mm
10:54 -0.6 °C -8.3 °C 1041.2 hPa WNW 6.4 km/h 11.3 km/h 56 % 0 mm
10:59 -0.4 °C -8.1 °C 1041.2 hPa NE 6.4 km/h 9.7 km/h 56 % 0 mm
11:04 -0.3 °C -8.2 °C 1041.2 hPa West 6.4 km/h 9.7 km/h 55 % 0 mm
11:09 -0.2 °C -7.9 °C 1041.2 hPa WNW 8 km/h 12.9 km/h 56 % 0 mm
11:14 0 °C -8.2 °C 1041.2 hPa NNW 3.2 km/h 12.9 km/h 54 % 0 mm
11:19 0.3 °C -8.4 °C 1040.9 hPa NW 6.4 km/h 12.9 km/h 52 % 0 mm
11:24 0.2 °C -8.5 °C 1040.9 hPa NNW 4.8 km/h 14.5 km/h 52 % 0 mm
11:29 0.3 °C -8.2 °C 1040.9 hPa NW 4.8 km/h 14.5 km/h 53 % 0 mm
11:34 0.4 °C -8.3 °C 1040.9 hPa WNW 12.9 km/h 14.5 km/h 52 % 0 mm
11:39 0.4 °C -8.6 °C 1040.5 hPa NW 9.7 km/h 14.5 km/h 51 % 0 mm
11:44 0.6 °C -8.6 °C 1040.2 hPa North 11.3 km/h 14.5 km/h 50 % 0 mm
11:49 0.8 °C -9 °C 1040.2 hPa North 4.8 km/h 14.5 km/h 48 % 0 mm
11:54 1.2 °C -7.8 °C 1040.2 hPa North 3.2 km/h 14.5 km/h 51 % 0 mm
11:59 1.6 °C -8 °C 1040.2 hPa Calm   14.5 km/h 49 % 0 mm
12:05 1.7 °C -8.1 °C 1040.2 hPa NNW 9.7 km/h 14.5 km/h 48 % 0 mm
12:10 1.7 °C -8.7 °C 1040.2 hPa NW 4.8 km/h 14.5 km/h 46 % 0 mm
12:15 1.7 °C -7.9 °C 1039.8 hPa NNW 9.7 km/h 16.1 km/h 49 % 0 mm
12:20 1.9 °C -8.2 °C 1039.8 hPa NW 11.3 km/h 16.1 km/h 47 % 0 mm
12:25 1.9 °C -8.5 °C 1039.8 hPa NW 3.2 km/h 16.1 km/h 46 % 0 mm
12:30 2.2 °C -8.5 °C 1039.8 hPa NW 4.8 km/h 14.5 km/h 45 % 0 mm
12:35 2.3 °C -8.4 °C 1039.8 hPa NW 3.2 km/h 12.9 km/h 45 % 0 mm
12:40 2.4 °C -8 °C 1039.8 hPa NW 1.6 km/h 12.9 km/h 46 % 0 mm
12:45 2.2 °C -9.1 °C 1039.8 hPa NNW 6.4 km/h 12.9 km/h 43 % 0 mm
12:50 2.6 °C -8.1 °C 1039.8 hPa NNW 6.4 km/h 11.3 km/h 45 % 0 mm
12:55 2.6 °C -8.1 °C 1039.8 hPa West 1.6 km/h 14.5 km/h 45 % 0 mm
13:00 2.7 °C -8.1 °C 1039.5 hPa West 8 km/h 19.3 km/h 45 % 0 mm
13:05 2.9 °C -8.5 °C 1039.5 hPa NW 4.8 km/h 19.3 km/h 43 % 0 mm
13:10 3.1 °C -8.3 °C 1039.5 hPa WNW 6.4 km/h 19.3 km/h 43 % 0 mm
13:15 3.2 °C -8.5 °C 1039.5 hPa NW 6.4 km/h 17.7 km/h 42 % 0 mm
13:20 3.2 °C -8.2 °C 1039.5 hPa NNW 6.4 km/h 17.7 km/h 43 % 0 mm
13:25 3.6 °C -7.5 °C 1039.2 hPa NW 3.2 km/h 17.7 km/h 44 % 0 mm
13:30 3.8 °C -7.9 °C 1039.2 hPa NW 6.4 km/h 17.7 km/h 42 % 0 mm
13:35 3.4 °C -8 °C 1039.2 hPa North 6.4 km/h 16.1 km/h 43 % 0 mm
13:40 3.5 °C -8.2 °C 1039.2 hPa NW 1.6 km/h 16.1 km/h 42 % 0 mm
13:45 3.6 °C -7.5 °C 1039.2 hPa NW 3.2 km/h 16.1 km/h 44 % 0 mm
13:50 3.9 °C -7.5 °C 1039.2 hPa WNW 11.3 km/h 16.1 km/h 43 % 0 mm
13:55 3.8 °C -7.6 °C 1039.2 hPa NW 4.8 km/h 19.3 km/h 43 % 0 mm
14:00 3.9 °C -7.9 °C 1039.2 hPa NW 11.3 km/h 19.3 km/h 42 % 0 mm
14:05 3.9 °C -7.5 °C 1038.8 hPa North 16.1 km/h 19.3 km/h 43 % 0 mm
14:10 4.3 °C -7.5 °C 1038.8 hPa North 6.4 km/h 19.3 km/h 42 % 0 mm
14:15 4.4 °C -7.7 °C 1038.5 hPa NNW 4.8 km/h 19.3 km/h 41 % 0 mm
14:20 4.5 °C -7.9 °C 1038.8 hPa NW 9.7 km/h 19.3 km/h 40 % 0 mm
14:25 4.1 °C -8.3 °C 1038.5 hPa NW 11.3 km/h 17.7 km/h 40 % 0 mm
14:30 4.1 °C -8.3 °C 1038.5 hPa North 8 km/h 17.7 km/h 40 % 0 mm
14:35 4.4 °C -8 °C 1038.5 hPa NW 4.8 km/h 17.7 km/h 40 % 0 mm
14:40 4.7 °C -7.8 °C 1038.5 hPa NW 8 km/h 19.3 km/h 40 % 0 mm
14:45 4.4 °C -8.4 °C 1038.5 hPa NW 1.6 km/h 19.3 km/h 39 % 0 mm
14:50 4.5 °C -7.9 °C 1038.5 hPa NW 22.5 km/h 22.5 km/h 40 % 0 mm
14:55 4.4 °C -8 °C 1038.5 hPa NW 8 km/h 22.5 km/h 40 % 0 mm
15:00 4.4 °C -8.4 °C 1038.5 hPa NNW 11.3 km/h 22.5 km/h 39 % 0 mm
15:05 4.6 °C -7.8 °C 1038.5 hPa North 4.8 km/h 22.5 km/h 40 % 0 mm
15:10 4.9 °C -7.6 °C 1038.8 hPa NNW 4.8 km/h 14.5 km/h 40 % 0 mm
15:15 4.9 °C -8.2 °C 1038.8 hPa NNW 6.4 km/h 16.1 km/h 38 % 0 mm
15:20 4.9 °C -8.2 °C 1038.8 hPa NW 3.2 km/h 16.1 km/h 38 % 0 mm
15:25 4.9 °C -8.2 °C 1038.8 hPa NNW 4.8 km/h 16.1 km/h 38 % 0 mm
15:30 5.2 °C -7.3 °C 1038.8 hPa WNW 6.4 km/h 16.1 km/h 40 % 0 mm
15:35 5.3 °C -7.9 °C 1038.8 hPa North 3.2 km/h 14.5 km/h 38 % 0 mm
15:40 5.2 °C -8 °C 1038.8 hPa NNW 4.8 km/h 14.5 km/h 38 % 0 mm
15:46 5.1 °C -8.1 °C 1038.5 hPa NW 11.3 km/h 14.5 km/h 38 % 0 mm
15:51 5.2 °C -8 °C 1038.5 hPa NNW 1.6 km/h 14.5 km/h 38 % 0 mm
15:56 5.3 °C -7.9 °C 1038.5 hPa North 4.8 km/h 12.9 km/h 38 % 0 mm
16:01 5.1 °C -8.4 °C 1038.5 hPa NNE 16.1 km/h 16.1 km/h 37 % 0 mm
16:06 5.1 °C -8.4 °C 1038.5 hPa NNW 6.4 km/h 16.1 km/h 37 % 0 mm
16:11 5.1 °C -8.4 °C 1038.5 hPa NNW 4.8 km/h 16.1 km/h 37 % 0 mm
16:16 5.1 °C -8.1 °C 1038.5 hPa NW 4.8 km/h 16.1 km/h 38 % 0 mm
16:21 5.2 °C -8.3 °C 1038.5 hPa NW 3.2 km/h 14.5 km/h 37 % 0 mm
16:26 5.2 °C -8 °C 1038.5 hPa NNW 6.4 km/h 14.5 km/h 38 % 0 mm
16:31 5.2 °C -8 °C 1038.5 hPa Calm   14.5 km/h 38 % 0 mm
16:36 5.2 °C -8.3 °C 1038.8 hPa WNW 4.8 km/h 12.9 km/h 37 % 0 mm
16:41 5.1 °C -8.1 °C 1038.8 hPa NNW 3.2 km/h 12.9 km/h 38 % 0 mm
16:46 5.2 °C -8 °C 1038.8 hPa NNW 3.2 km/h 12.9 km/h 38 % 0 mm
16:51 5.1 °C -8.8 °C 1038.8 hPa Calm   12.9 km/h 36 % 0 mm
16:56 4.9 °C -8.6 °C 1038.8 hPa NNW 3.2 km/h 12.9 km/h 37 % 0 mm
17:01 4.9 °C -8.6 °C 1038.8 hPa NNW 4.8 km/h 12.9 km/h 37 % 0 mm
17:06 4.8 °C -8.7 °C 1038.8 hPa North 8 km/h 9.7 km/h 37 % 0 mm
17:11 4.7 °C -8.4 °C 1039.2 hPa NW 4.8 km/h 9.7 km/h 38 % 0 mm
17:17 4.5 °C -8.6 °C 1039.2 hPa NNW 8 km/h 9.7 km/h 38 % 0 mm
17:21 4.4 °C -8.7 °C 1039.2 hPa NNE 1.6 km/h 16.1 km/h 38 % 0 mm
17:27 4.2 °C -8.5 °C 1039.2 hPa NW 6.4 km/h 16.1 km/h 39 % 0 mm
17:32 4.1 °C -8.6 °C 1039.2 hPa NNE 4.8 km/h 16.1 km/h 39 % 0 mm
17:37 4 °C -8.4 °C 1039.2 hPa NW 3.2 km/h 9.7 km/h 40 % 0 mm
17:42 3.9 °C -8.5 °C 1039.2 hPa NNW 3.2 km/h 9.7 km/h 40 % 0 mm
17:47 3.7 °C -8.3 °C 1039.2 hPa WNW 3.2 km/h 9.7 km/h 41 % 0 mm
17:52 3.6 °C -8.1 °C 1039.2 hPa NNW 1.6 km/h 6.4 km/h 42 % 0 mm
17:57 3.5 °C -8.2 °C 1039.2 hPa WNW 3.2 km/h 6.4 km/h 42 % 0 mm
18:02 3.4 °C -8.3 °C 1039.5 hPa NW 1.6 km/h 6.4 km/h 42 % 0 mm
18:07 3.3 °C -8.1 °C 1039.2 hPa Calm   6.4 km/h 43 % 0 mm
18:12 3.1 °C -8 °C 1039.5 hPa Calm   6.4 km/h 44 % 0 mm
18:17 2.9 °C -7.9 °C 1039.5 hPa Calm   6.4 km/h 45 % 0 mm
18:22 2.8 °C -8 °C 1039.5 hPa Calm   3.2 km/h 45 % 0 mm
18:27 2.7 °C -7.8 °C 1039.8 hPa NW 1.6 km/h 3.2 km/h 46 % 0 mm
18:32 2.5 °C -8 °C 1039.8 hPa Calm   3.2 km/h 46 % 0 mm
18:37 2.4 °C -8 °C 1039.8 hPa Calm   3.2 km/h 46 % 0 mm
18:42 2.4 °C -7.8 °C 1039.8 hPa Calm   1.6 km/h 47 % 0 mm
18:47 2.2 °C -7.7 °C 1039.8 hPa Calm   1.6 km/h 48 % 0 mm
18:52 2.1 °C -7.5 °C 1040.2 hPa Calm   1.6 km/h 49 % 0 mm
18:57 2 °C -7.6 °C 1040.2 hPa Calm   1.6 km/h 49 % 0 mm
19:02 1.8 °C -7.8 °C 1040.2 hPa Calm   1.6 km/h 49 % 0 mm
19:07 1.7 °C -7.6 °C 1040.2 hPa Calm   1.6 km/h 50 % 0 mm
19:12 1.6 °C -7.5 °C 1040.2 hPa Calm   1.6 km/h 51 % 0 mm
19:17 1.4 °C -7.6 °C 1040.2 hPa Calm     51 % 0 mm
19:22 1.4 °C -7.4 °C 1040.2 hPa Calm   1.6 km/h 52 % 0 mm
19:27 1.3 °C -7.2 °C 1040.5 hPa Calm   1.6 km/h 53 % 0 mm
19:32 1.1 °C -7.2 °C 1040.2 hPa Calm   1.6 km/h 54 % 0 mm
19:37 1.1 °C -7.2 °C 1040.5 hPa Calm     54 % 0 mm
19:42 1 °C -7.3 °C 1040.5 hPa Calm     54 % 0 mm
19:47 0.9 °C -7.4 °C 1040.5 hPa Calm   1.6 km/h 54 % 0 mm
19:52 0.8 °C -7.5 °C 1040.5 hPa Calm   1.6 km/h 54 % 0 mm
19:57 0.7 °C -7.3 °C 1040.5 hPa Calm   1.6 km/h 55 % 0 mm
20:02 0.6 °C -7.4 °C 1040.5 hPa Calm   1.6 km/h 55 % 0 mm
20:07 0.6 °C -7.4 °C 1040.9 hPa Calm   1.6 km/h 55 % 0 mm
20:12 0.7 °C -7.5 °C 1040.9 hPa NNW 1.6 km/h 1.6 km/h 54 % 0 mm
20:17 0.7 °C -7.5 °C 1040.9 hPa WNW 1.6 km/h 1.6 km/h 54 % 0 mm
20:22 0.7 °C -7.3 °C 1040.9 hPa Calm   1.6 km/h 55 % 0 mm
20:27 0.7 °C -7.3 °C 1040.9 hPa Calm   1.6 km/h 55 % 0 mm
20:32 0.6 °C -7.4 °C 1040.9 hPa Calm   1.6 km/h 55 % 0 mm
20:37 0.4 °C -7.4 °C 1040.9 hPa Calm   1.6 km/h 56 % 0 mm
20:42 0.3 °C -7.2 °C 1040.9 hPa Calm   1.6 km/h 57 % 0 mm
20:47 0.2 °C -7.3 °C 1040.9 hPa Calm     57 % 0 mm
20:52 0.1 °C -7.4 °C 1040.9 hPa Calm     57 % 0 mm
20:57 -0.2 °C -7.7 °C 1040.9 hPa Calm     57 % 0 mm
21:02 -0.6 °C -7.6 °C 1040.9 hPa Calm     59 % 0 mm
21:07 -0.7 °C -7.5 °C 1040.9 hPa Calm     60 % 0 mm
21:12 -0.8 °C -7.6 °C 1040.9 hPa Calm     60 % 0 mm
21:17 -1 °C -7.6 °C 1040.9 hPa Calm     61 % 0 mm
21:22 -1.1 °C -7.2 °C 1040.9 hPa Calm     63 % 0 mm
21:27 -1.1 °C -7.2 °C 1040.9 hPa Calm     63 % 0 mm
21:32 -1.2 °C -7.3 °C 1041.2 hPa Calm     63 % 0 mm
21:37 -1.3 °C -7.2 °C 1040.9 hPa Calm     64 % 0 mm
21:42 -1.6 °C -7.5 °C 1041.2 hPa Calm     64 % 0 mm
21:47 -1.8 °C -7.3 °C 1041.2 hPa Calm     66 % 0 mm
21:52 -1.8 °C -7.3 °C 1041.2 hPa Calm     66 % 0 mm
21:57 -1.9 °C -7.4 °C 1040.9 hPa Calm     66 % 0 mm
22:02 -2.1 °C -7.4 °C 1040.9 hPa Calm     67 % 0 mm
22:07 -2.2 °C -7.1 °C 1040.9 hPa Calm     69 % 0 mm
22:12 -2.1 °C -6.8 °C 1040.9 hPa Calm     70 % 0 mm
22:17 -2.1 °C -7 °C 1041.2 hPa Calm     69 % 0 mm
22:22 -2.3 °C -7.2 °C 1041.2 hPa Calm     69 % 0 mm
22:27 -2.2 °C -6.6 °C 1041.2 hPa Calm     72 % 0 mm
22:32 -2.3 °C -6.7 °C 1041.5 hPa Calm     72 % 0 mm
22:37 -2.2 °C -6.2 °C 1041.5 hPa Calm     74 % 0 mm
22:42 -2.2 °C -6.4 °C 1041.5 hPa Calm     73 % 0 mm
22:47 -2.3 °C -6.5 °C 1041.5 hPa Calm     73 % 0 mm
22:52 -2.5 °C -6.5 °C 1041.5 hPa Calm     74 % 0 mm
22:57 -2.5 °C -6.1 °C 1041.5 hPa Calm     76 % 0 mm
23:02 -2.5 °C -6.1 °C 1041.5 hPa Calm     76 % 0 mm
23:07 -2.4 °C -6.1 °C 1041.5 hPa Calm     76 % 0 mm
23:12 -2.5 °C -6.1 °C 1041.5 hPa Calm     76 % 0 mm
23:17 -2.6 °C -6.2 °C 1041.5 hPa Calm     76 % 0 mm
23:22 -2.7 °C -6.2 °C 1041.5 hPa Calm     77 % 0 mm
23:27 -2.8 °C -6.3 °C 1041.5 hPa Calm     77 % 0 mm
23:32 -3 °C -6.5 °C 1041.5 hPa Calm     77 % 0 mm
23:37 -3.1 °C -6.6 °C 1041.5 hPa Calm     77 % 0 mm
23:42 -2.9 °C -6 °C 1041.5 hPa Calm     79 % 0 mm
23:47 -2.9 °C -6.2 °C 1041.5 hPa Calm     78 % 0 mm
23:52 -3.2 °C -6.5 °C 1041.5 hPa Calm     78 % 0 mm
23:57 -3.3 °C -6.4 °C 1041.5 hPa Calm     79 % 0 mm
Spring, Texas: Villages of Bridgestone
Compliments of Weather Underground - 3.25 mb

Script developed by  Jim McMurry - jmcmurry@mwt.net Adapted for the template by  Wim van der Kuil - Leuven-Template.eu

You find our weather info also at:

UK Metoffice

WeatherCloud

Weather Underground

Mid-South Weather Network

AWEKAS

Citizen Weather Observer Program (CWOP)

HAMweather, WeatherForYou, PWS Weather

Equipment we use:

Weather-station
Davis Vantage Vue

Weather-program
Meteohub

Weather-server
Debian 7.9 x86 (Guest)

Provider
DreamHost

Davis Vantage Vue

Meteohub

Debian 7.9 x86 (Guest)

DreamHost